This is the latest recevied weather packets stored in our database for station/object NY3Q. If no packets are shown the sender has not sent any weather packets the latest 10 day(s).
| Time | Temp. | Humidity | Pressure | Rain* | Wind** | Luminosity | Snow |
|---|---|---|---|---|---|---|---|
| 1778111297 | 26.11° C | 62% | 1014.5 hPa | 0 mm | - | 8 W/m² | - |
| 1778110995 | 26.67° C | 61% | 1014.2 hPa | 0 mm | - | 11 W/m² | - |
| 1778110692 | 26.67° C | 61% | 1014.5 hPa | 0 mm | - | 15 W/m² | - |
| 1778110388 | 27.22° C | 61% | 1014.4 hPa | 0 mm | - | 19 W/m² | - |
| 1778110085 | 27.22° C | 60% | 1014.4 hPa | 0 mm | - | 24 W/m² | - |
| 1778109780 | 27.22° C | 60% | 1014.2 hPa | 0 mm | - | 40 W/m² | - |
| 1778109477 | 27.22° C | 61% | 1014.2 hPa | 0 mm | - | 54 W/m² | - |
| 1778109175 | 27.22° C | 60% | 1014 hPa | 0 mm | - | 66 W/m² | - |
| 1778108873 | 27.78° C | 59% | 1014.4 hPa | 0 mm | - | 78 W/m² | - |
| 1778108569 | 27.78° C | 58% | 1014.4 hPa | 0 mm | - | 89 W/m² | - |
| 1778108265 | 28.33° C | 58% | 1014.2 hPa | 0 mm | - | 91 W/m² | - |
| 1778107963 | 28.33° C | 59% | 1014.2 hPa | 0 mm | - | 112 W/m² | - |
| 1778107659 | 28.89° C | 59% | 1014.3 hPa | 0 mm | - | 131 W/m² | - |
| 1778107357 | 28.89° C | 61% | 1014.5 hPa | 0 mm | - | 152 W/m² | - |
| 1778107053 | 28.89° C | 60% | 1014.5 hPa | 0 mm | - | 150 W/m² | - |
| 1778106748 | 28.89° C | 60% | 1014.3 hPa | 0 mm | - | 197 W/m² | - |
| 1778106445 | 29.44° C | 60% | 1014.5 hPa | 0 mm | - | 213 W/m² | - |
| 1778106140 | 29.44° C | 59% | 1014.3 hPa | 0 mm | - | 224 W/m² | - |
| 1778105839 | 30° C | 58% | 1014.6 hPa | 0 mm | - | 238 W/m² | - |
| 1778105537 | 30° C | 59% | 1014.4 hPa | 0 mm | - | 252 W/m² | - |
| 1778105234 | 30° C | 59% | 1014.3 hPa | 0 mm | - | 265 W/m² | - |
| 1778104928 | 30° C | 58% | 1014.4 hPa | 0 mm | - | 290 W/m² | - |
| 1778104625 | 30° C | 58% | 1014.4 hPa | 0 mm | - | 281 W/m² | - |
| 1778104321 | 30° C | 58% | 1014.2 hPa | 0 mm | - | 285 W/m² | - |
| 1778104018 | 30.56° C | 57% | 1014.3 hPa | 0 mm | - | 276 W/m² | - |
* Rain latest hour (hover to see other rain measurements)
** Current wind speed in m/s (hover to see current wind gust speed)